Tracking 19636 objects as of 25-May-2019
HD Live streaming from Space Station
objects crossing your sky now

COSMOS 836

Track COSMOS 836 now!
10-day predictions
COSMOS 836 is classified as:


NORAD ID: 8923
Int'l Code: 1976-061A
Perigee: 775.6 km
Apogee: 801.3 km
Inclination: 74.1 °
Period: 100.5 minutes
Semi major axis: 7159 km
RCS: 1.916 m2 (large)
Launch date: June 29, 1976
Source: Commonwealth of Independent States (former USSR) (CIS)
Launch site: PLESETSK MISSILE AND SPACE COMPLEX (PKMTR)
aabbcc
Your satellite tracking list
Your tracking list is empty




NASA's NSSDC Master Catalog

Two Line Element Set (TLE):
1  8923U 76061A   19144.87429492  .00000012  00000-0  13769-4 0  9999
2  8923  74.0547   7.4789 0017889 167.0199 193.1417 14.33123251240762
Source of the keplerian elements: AFSPC